GW6747 Weather Reports


time (UTC)temp
C
wind
direction
speed
KPH
gust
KPH
rain 1hr
cm
rain 24hr
cm
rain mn
cm
humidity
%
barometer
mb
20260503212226 21 290 9.7 14.5 0.00 0.00 0.00 57 1012.1
20260503211723 21 313 6.4 11.3 0.00 0.00 0.00 57 1012.2
20260503211219 21 266 9.7 14.5 0.00 0.00 0.00 56 1012.4
20260503210715 21 299 6.4 17.7 0.00 0.00 0.00 59 1012.4
20260503210213 21 294 8.0 12.9 0.00 0.00 0.00 55 1012.5
20260503205708 21 287 8.0 12.9 0.00 0.00 0.00 58 1012.5
20260503205204 21 295 6.4 16.1 0.00 0.00 0.00 58 1012.4
20260503204700 21 310 6.4 9.7 0.00 0.00 0.00 59 1012.6
20260503204159 21 283 8.0 14.5 0.00 0.00 0.00 57 1012.6
20260503203655 21 284 6.4 8.0 0.00 0.00 0.00 59 1012.5
20260503203153 21 286 6.4 8.0 0.00 0.00 0.00 59 1012.3
20260503202650 21 312 4.8 14.5 0.00 0.00 0.00 63 1012.5
20260503202148 20 278 9.7 12.9 0.00 0.00 0.00 61 1012.5
20260503201646 20 273 6.4 11.3 0.00 0.00 0.00 60 1012.6
20260503201143 21 268 3.2 12.9 0.00 0.00 0.00 60 1012.5
20260503200639 21 294 6.4 9.7 0.00 0.00 0.00 60 1012.8
20260503200135 20 275 6.4 12.9 0.00 0.00 0.00 58 1012.7
20260503195633 20 288 9.7 11.3 0.00 0.00 0.00 59 1012.9
20260503195129 20 279 9.7 12.9 0.00 0.00 0.00 60 1013.0
20260503194627 20 290 9.7 9.7 0.00 0.00 0.00 58 1013.2
20260503194121 20 314 6.4 8.0 0.00 0.00 0.00 61 1013.1
20260503193619 20 295 6.4 9.7 0.00 0.00 0.00 60 1013.3
20260503193114 20 304 6.4 8.0 0.00 0.00 0.00 61 1013.2
20260503192610 20 293 4.8 8.0 0.00 0.00 0.00 59 1013.2
20260503192106 20 290 6.4 8.0 0.00 0.00 0.00 61 1013.3
20260503191603 20 263 6.4 11.3 0.00 0.00 0.00 58 1013.4
20260503191100 20 297 6.4 9.7 0.00 0.00 0.00 59 1013.4
20260503190557 20 296 6.4 9.7 0.00 0.00 0.00 62 1013.6
20260503190054 19 282 6.4 11.3 0.00 0.00 0.00 61 1013.6
20260503185550 19 310 6.4 9.7 0.00 0.00 0.00 64 1013.6
20260503185050 20 274 11.3 12.9 0.00 0.00 0.00 62 1013.6
20260503184546 19 285 9.7 9.7 0.00 0.00 0.00 63 1013.6
20260503184043 18 319 8.0 9.7 0.00 0.00 0.00 65 1013.7
20260503183539 18 299 6.4 14.5 0.00 0.00 0.00 66 1013.9
20260503183037 18 286 9.7 9.7 0.00 0.00 0.00 65 1013.8
20260503182535 18 309 4.8 9.7 0.00 0.00 0.00 67 1013.8
20260503182033 18 276 8.0 11.3 0.00 0.00 0.00 66 1013.9
20260503181529 18 290 6.4 12.9 0.00 0.00 0.00 66 1013.8
20260503181026 18 282 8.0 16.1 0.00 0.00 0.00 66 1013.8
20260503180523 18 262 8.0 14.5 0.00 0.00 0.00 66 1014.0
20260503180020 18 309 4.8 16.1 0.00 0.00 0.00 65 1014.0
20260503175518 18 296 6.4 11.3 0.00 0.00 0.00 67 1013.9
20260503175015 18 274 11.3 14.5 0.00 0.00 0.00 64 1014.0
20260503174512 18 284 8.0 11.3 0.00 0.00 0.00 67 1014.1
20260503174008 18 294 6.4 11.3 0.00 0.00 0.00 68 1014.1
20260503173503 18 271 8.0 11.3 0.00 0.00 0.00 66 1014.2
20260503173000 18 298 8.0 11.3 0.00 0.00 0.00 69 1014.1
20260503172458 17 282 8.0 11.3 0.00 0.00 0.00 69 1014.2
20260503171954 17 277 8.0 14.5 0.00 0.00 0.00 68 1014.1
20260503171451 17 287 9.7 11.3 0.00 0.00 0.00 70 1014.3
20260503170948 17 274 9.7 14.5 0.00 0.00 0.00 71 1014.5
20260503170444 16 299 6.4 12.9 0.00 0.00 0.00 71 1014.3
20260503150837 14 282 12.9 12.9 0.00 0.00 0.00 79 1014.6
20260503150333 14 283 8.0 12.9 0.00 0.00 0.00 78 1014.7
20260503140257 13 253 3.2 9.7 0.00 0.00 0.00 82 1014.5
20260503131227 11 269 0.0 4.8 0.00 0.00 0.00 86 1014.0
20260503130724 11 330 1.6 3.2 0.00 0.00 0.00 86 1014.1
20260503130221 11 286 3.2 9.7 0.00 0.00 0.00 85 1014.2
20260503120147 11 275 0.0 3.2 0.00 0.00 0.00 86 1014.5
20260503110615 11 326 0.0 1.6 0.00 0.00 0.00 82 1014.3
20260503110112 11 333 0.0 3.2 0.00 0.00 0.00 82 1014.5
20260503090502 12 0 0.0 3.2 0.00 0.00 0.00 77 1014.6
20260503081428 13 304 1.6 3.2 0.00 0.00 0.00 72 1014.4
20260503080925 13 290 0.0 3.2 0.00 0.00 0.00 72 1014.3
20260503080421 12 354 0.0 1.6 0.00 0.00 0.00 72 1014.5
20260503072858 13 9 1.6 3.2 0.00 0.00 0.00 69 1014.3
20260503072355 13 358 1.6 3.2 0.00 0.00 0.00 68 1014.4
20260503071851 13 298 0.0 1.6 0.00 0.00 0.00 68 1014.3
20260503071349 13 320 3.2 3.2 0.00 0.00 0.00 68 1014.1
20260503070845 13 299 0.0 1.6 0.00 0.00 0.00 67 1014.2
20260503070343 14 335 0.0 3.2 0.00 0.00 0.00 67 1014.1
20260503060314 15 294 3.2 4.8 0.00 0.00 0.00 61 1014.2
20260503054801 15 301 1.6 3.2 0.00 0.00 0.00 61 1014.2
20260503054258 15 300 3.2 4.8 0.00 0.00 0.00 61 1014.1
20260503053755 16 269 3.2 4.8 0.00 0.00 0.00 60 1014.2
20260503053254 16 299 0.0 9.7 0.00 0.00 0.00 58 1014.2
20260503052749 16 287 3.2 11.3 0.00 0.00 0.00 57 1014.0
20260503052247 17 272 8.0 9.7 0.00 0.00 0.00 56 1014.2
20260503051742 17 284 12.9 14.5 0.00 0.00 0.00 55 1013.9
20260503051240 17 323 3.2 12.9 0.00 0.00 0.00 57 1014.0
20260503050736 17 289 11.3 12.9 0.00 0.00 0.00 56 1014.1
20260503050232 17 280 4.8 12.9 0.00 0.00 0.00 55 1013.9
20260503045730 17 295 4.8 8.0 0.00 0.00 0.00 55 1013.9
20260503045228 17 278 9.7 12.9 0.00 0.00 0.00 56 1013.9
20260503044724 17 273 6.4 12.9 0.00 0.00 0.00 56 1013.9
20260503044222 17 288 11.3 16.1 0.00 0.00 0.00 57 1013.8
20260503043718 17 282 3.2 16.1 0.00 0.00 0.00 57 1013.8
20260503043216 17 281 9.7 14.5 0.00 0.00 0.00 57 1013.7
20260503042711 17 276 6.4 17.7 0.00 0.00 0.00 57 1013.6
20260503042208 17 274 8.0 14.5 0.00 0.00 0.00 58 1013.6
20260503041704 17 275 3.2 16.1 0.00 0.00 0.00 59 1013.6
20260503041202 17 274 4.8 16.1 0.00 0.00 0.00 60 1013.4
20260503040659 16 258 6.4 12.9 0.00 0.00 0.00 61 1013.6
20260503040157 17 292 6.4 16.1 0.00 0.00 0.00 61 1013.4
20260503035653 17 284 9.7 14.5 0.00 0.00 0.00 60 1013.5
20260503035151 17 253 4.8 14.5 0.00 0.00 0.00 60 1013.6
20260503034648 17 295 3.2 12.9 0.00 0.00 0.00 60 1013.2
20260503034145 17 274 4.8 11.3 0.00 0.00 0.00 59 1013.4
20260503033642 17 289 6.4 9.7 0.00 0.00 0.00 60 1013.3
20260503033140 17 281 6.4 9.7 0.00 0.00 0.00 59 1013.1
20260503032638 17 273 4.8 8.0 0.00 0.00 0.00 58 1013.1
20260503032137 17 275 4.8 9.7 0.00 0.00 0.00 57 1013.2
20260503031633 17 290 11.3 16.1 0.00 0.00 0.00 55 1013.0
20260503031131 18 276 4.8 9.7 0.00 0.00 0.00 57 1013.0
20260503030627 18 278 8.0 11.3 0.00 0.00 0.00 54 1013.1
20260503030124 18 297 6.4 12.9 0.00 0.00 0.00 53 1013.0
20260503025620 18 290 8.0 14.5 0.00 0.00 0.00 52 1012.8
20260503025119 18 275 12.9 20.9 0.00 0.00 0.00 53 1012.9
20260503024615 18 262 6.4 19.3 0.00 0.00 0.00 54 1012.8
20260503024112 18 273 9.7 19.3 0.00 0.00 0.00 54 1012.8
20260503023609 19 280 14.5 19.3 0.00 0.00 0.00 52 1012.7
20260503023106 19 274 11.3 20.9 0.00 0.00 0.00 51 1012.7
20260503022601 19 276 14.5 16.1 0.00 0.00 0.00 51 1012.7
20260503022056 19 282 12.9 20.9 0.00 0.00 0.00 51 1012.9
20260503021554 19 280 12.9 22.5 0.00 0.00 0.00 51 1012.8
20260503021050 19 264 19.3 22.5 0.00 0.00 0.00 51 1012.9
20260503020547 19 285 14.5 20.9 0.00 0.00 0.00 51 1013.0
20260503020044 20 286 16.1 20.9 0.00 0.00 0.00 50 1013.0
20260503015541 20 285 19.3 24.1 0.00 0.00 0.00 49 1012.9
20260503015038 20 286 16.1 22.5 0.00 0.00 0.00 49 1013.0
20260503014534 20 287 12.9 25.7 0.00 0.00 0.00 50 1013.1
20260503014032 20 274 11.3 17.7 0.00 0.00 0.00 52 1013.1
20260503013529 20 285 14.5 17.7 0.00 0.00 0.00 51 1012.9
20260503013027 20 269 12.9 24.1 0.00 0.00 0.00 52 1013.1
20260503012524 20 263 11.3 19.3 0.00 0.00 0.00 52 1013.2
20260503012020 20 281 8.0 20.9 0.00 0.00 0.00 52 1013.2
20260503011517 20 276 14.5 22.5 0.00 0.00 0.00 52 1013.5
20260503011015 20 292 14.5 19.3 0.00 0.00 0.00 52 1013.3
20260503010510 20 269 12.9 19.3 0.00 0.00 0.00 53 1013.1
20260503010009 20 276 14.5 24.1 0.00 0.00 0.00 53 1013.4
20260503005505 20 266 12.9 16.1 0.00 0.00 0.00 54 1013.3
20260503005002 20 277 12.9 20.9 0.00 0.00 0.00 54 1013.3
20260503004458 20 256 12.9 20.9 0.00 0.00 0.00 53 1013.3
20260503003956 20 280 12.9 20.9 0.00 0.00 0.00 52 1013.2
20260503003453 20 265 11.3 20.9 0.00 0.00 0.00 53 1013.4
20260503002950 20 278 12.9 20.9 0.00 0.00 0.00 53 1013.5
20260503002447 20 281 14.5 20.9 0.00 0.00 0.00 52 1013.5
20260503001943 20 258 16.1 20.9 0.00 0.00 0.00 52 1013.2
20260503001440 20 251 16.1 20.9 0.00 0.00 0.00 52 1013.6
20260503000938 20 278 12.9 19.3 0.00 0.00 0.00 53 1013.5
20260503000437 20 280 12.9 19.3 0.00 0.00 0.00 53 1013.6
20260502235932 20 273 9.7 19.3 0.00 0.00 0.00 54 1013.7
20260502235428 20 285 12.9 16.1 0.00 0.00 0.00 56 1013.6
20260502234926 20 289 12.9 17.7 0.00 0.00 0.00 55 1013.7
20260502234422 20 266 12.9 20.9 0.00 0.00 0.00 56 1013.6
20260502233920 21 284 11.3 14.5 0.00 0.00 0.00 55 1013.8
20260502233415 21 293 14.5 16.1 0.00 0.00 0.00 54 1013.8
20260502232912 20 277 11.3 16.1 0.00 0.00 0.00 55 1013.9
20260502232408 20 283 8.0 17.7 0.00 0.00 0.00 55 1014.0
20260502231905 20 274 9.7 19.3 0.00 0.00 0.00 55 1013.9
20260502231403 20 274 16.1 19.3 0.00 0.00 0.00 56 1014.1
20260502230901 20 276 11.3 20.9 0.00 0.00 0.00 58 1014.1
20260502230359 20 271 14.5 16.1 0.00 0.00 0.00 56 1014.1
20260502225856 20 277 12.9 19.3 0.00 0.00 0.00 59 1014.3
20260502225352 20 291 16.1 19.3 0.00 0.00 0.00 57 1014.4
20260502224849 20 266 11.3 19.3 0.00 0.00 0.00 56 1014.2
20260502224345 19 274 12.9 22.5 0.00 0.00 0.00 59 1014.5
20260502223843 19 267 11.3 24.1 0.00 0.00 0.00 60 1014.6
20260502223341 19 274 12.9 22.5 0.00 0.00 0.00 61 1014.5
20260502222838 19 272 11.3 24.1 0.00 0.00 0.00 59 1014.7
20260502222336 18 282 11.3 25.7 0.00 0.00 0.00 61 1014.9
20260502221831 18 260 16.1 27.4 0.00 0.00 0.00 63 1014.9
20260502221327 18 277 12.9 25.7 0.00 0.00 0.00 63 1014.9
20260502220825 19 288 16.1 24.1 0.00 0.00 0.00 60 1015.0
20260502220320 19 259 16.1 25.7 0.00 0.00 0.00 60 1015.1
20260502215817 18 282 14.5 24.1 0.00 0.00 0.00 63 1015.0
20260502215315 18 278 8.0 20.9 0.00 0.00 0.00 63 1015.2
20260502214812 19 267 16.1 20.9 0.00 0.00 0.00 62 1015.1
20260502214308 18 266 14.5 24.1 0.00 0.00 0.00 62 1015.2
20260502213806 18 275 17.7 20.9 0.00 0.00 0.00 63 1015.5
20260502213303 18 288 14.5 19.3 0.00 0.00 0.00 63 1015.3
20260502212802 18 299 9.7 24.1 0.00 0.00 0.00 62 1015.6